TimeEDT,TemperatureF,Dew PointF,Humidity,Sea Level PressureIn,VisibilityMPH,Wind Direction,Wind SpeedMPH,Gust SpeedMPH,PrecipitationIn,Events,Conditions,WindDirDegrees,DateUTC
12:55 AM,67.5,63.0,85,30.18,10.0,East,6.9,-,N/A,,Clear,80,2012-10-13 04:55:00
1:55 AM,67.6,64.2,89,30.17,10.0,ENE,8.1,-,N/A,,Clear,70,2012-10-13 05:55:00
2:55 AM,67.3,64.6,91,30.15,10.0,ENE,6.9,-,N/A,,Clear,70,2012-10-13 06:55:00
3:55 AM,67.3,65.5,94,30.14,10.0,ENE,5.8,-,N/A,,Clear,60,2012-10-13 07:55:00
4:55 AM,67.3,64.9,92,30.14,10.0,ENE,6.9,-,N/A,,Clear,70,2012-10-13 08:55:00
5:55 AM,66.2,64.6,94,30.15,10.0,NE,4.6,-,N/A,,Clear,50,2012-10-13 09:55:00
6:55 AM,66.6,65.7,97,30.16,10.0,ENE,6.9,-,N/A,,Clear,60,2012-10-13 10:55:00
7:55 AM,68.0,66.6,95,30.17,10.0,NE,5.8,-,N/A,,Clear,40,2012-10-13 11:55:00
8:55 AM,72.7,68.2,86,30.19,10.0,ENE,9.2,-,N/A,,Partly Cloudy,70,2012-10-13 12:55:00
9:55 AM,76.8,69.1,77,30.19,10.0,ENE,11.5,-,N/A,,Clear,70,2012-10-13 13:55:00
10:55 AM,80.2,69.6,70,30.20,10.0,ENE,15.0,-,N/A,,Clear,70,2012-10-13 14:55:00
11:55 AM,82.6,67.8,61,30.19,10.0,East,13.8,-,N/A,,Clear,90,2012-10-13 15:55:00
12:55 PM,84.9,67.3,55,30.17,10.0,East,16.1,-,N/A,,Partly Cloudy,80,2012-10-13 16:55:00
1:55 PM,85.8,66.6,52,30.14,10.0,East,16.1,-,N/A,,Mostly Cloudy,90,2012-10-13 17:55:00
2:55 PM,86.4,66.7,52,30.11,10.0,East,15.0,-,N/A,,Partly Cloudy,80,2012-10-13 18:55:00
3:55 PM,86.9,67.8,53,30.09,10.0,East,19.6,-,N/A,,Partly Cloudy,80,2012-10-13 19:55:00
4:55 PM,86.4,66.6,51,30.09,10.0,East,18.4,25.3,N/A,,Partly Cloudy,90,2012-10-13 20:55:00
5:55 PM,84.0,66.6,56,30.09,10.0,East,13.8,-,N/A,,Clear,100,2012-10-13 21:55:00
6:55 PM,80.6,65.3,59,30.10,10.0,East,13.8,-,N/A,,Clear,80,2012-10-13 22:55:00
7:55 PM,76.5,65.8,70,30.12,10.0,East,10.4,-,N/A,,Clear,80,2012-10-13 23:55:00
8:55 PM,75.7,66.4,73,30.13,10.0,East,10.4,-,N/A,,Clear,80,2012-10-14 00:55:00
9:55 PM,73.9,66.4,77,30.15,10.0,ENE,9.2,-,N/A,,Clear,60,2012-10-14 01:55:00
10:55 PM,73.9,67.8,81,30.14,10.0,ENE,8.1,-,N/A,,Overcast,70,2012-10-14 02:55:00
11:55 PM,73.6,68.2,83,30.14,10.0,ENE,9.2,-,N/A,,Overcast,70,2012-10-14 03:55:00